Time,TemperatureF,DewpointF,PressureIn,WindDirection,WindDirectionDegrees,WindSpeedMPH,WindSpeedGustMPH,Humidity,HourlyPrecipIn,Conditions,Clouds,dailyrainin,SoftwareType,DateUTC
2013-05-10 00:01:00,38.0,37.0,-100.00,SE,124,4.0,8.0,95,0.00,,,-99.99,,2013-05-10 06:01:00,
2013-05-10 00:12:00,38.0,37.0,-100.00,SE,133,6.0,10.0,95,0.00,,,-99.99,,2013-05-10 06:12:00,
2013-05-10 00:21:00,38.0,37.0,-100.00,SE,134,6.0,8.0,94,0.00,,,-99.99,,2013-05-10 06:21:00,
2013-05-10 00:32:00,37.0,36.0,-100.00,SSE,164,6.0,7.0,94,0.00,,,-99.99,,2013-05-10 06:32:00,
2013-05-10 00:42:00,37.0,36.0,-100.00,South,169,5.0,6.0,94,0.00,,,-99.99,,2013-05-10 06:42:00,
2013-05-10 00:51:00,36.0,34.0,-100.00,SW,215,4.0,6.0,94,0.00,,,-99.99,,2013-05-10 06:51:00,
2013-05-10 01:02:00,35.0,34.0,-100.00,SW,229,7.0,9.0,95,0.00,,,-99.99,,2013-05-10 07:02:00,
2013-05-10 01:12:00,35.0,34.0,-100.00,SW,220,6.0,7.0,96,0.00,,,-99.99,,2013-05-10 07:12:00,
2013-05-10 01:22:00,36.0,35.0,-100.00,SW,220,6.0,7.0,96,0.00,,,-99.99,,2013-05-10 07:22:00,
2013-05-10 01:31:00,36.0,35.0,-100.00,SSW,196,6.0,6.0,95,0.00,,,-99.99,,2013-05-10 07:31:00,
2013-05-10 01:42:00,37.0,35.0,-100.00,South,181,6.0,7.0,95,0.00,,,-99.99,,2013-05-10 07:42:00,
2013-05-10 01:52:00,36.0,35.0,-100.00,South,182,6.0,7.0,94,0.00,,,-99.99,,2013-05-10 07:52:00,
2013-05-10 02:02:00,35.0,34.0,-100.00,South,191,6.0,7.0,95,0.00,,,-99.99,,2013-05-10 08:02:00,
2013-05-10 02:12:00,35.0,34.0,-100.00,South,182,7.0,7.0,96,0.00,,,-99.99,,2013-05-10 08:12:00,
2013-05-10 02:21:00,35.0,34.0,-100.00,SSE,160,6.0,7.0,95,0.00,,,-99.99,,2013-05-10 08:21:00,
2013-05-10 02:32:00,35.0,33.0,-100.00,SSE,167,7.0,9.0,95,0.00,,,-99.99,,2013-05-10 08:32:00,
2013-05-10 02:42:00,35.0,34.0,-100.00,South,179,4.0,7.0,96,0.00,,,-99.99,,2013-05-10 08:42:00,
2013-05-10 02:52:00,35.0,34.0,-100.00,SSE,162,2.0,5.0,95,0.00,,,-99.99,,2013-05-10 08:52:00,
2013-05-10 03:01:00,34.0,33.0,-100.00,South,188,2.0,4.0,95,0.00,,,-99.99,,2013-05-10 09:01:00,
2013-05-10 03:11:00,34.0,33.0,-100.00,SSW,206,2.0,4.0,95,0.00,,,-99.99,,2013-05-10 09:11:00,
2013-05-10 03:21:00,34.0,33.0,-100.00,SW,216,3.0,4.0,95,0.00,,,-99.99,,2013-05-10 09:21:00,
2013-05-10 03:32:00,34.0,33.0,-100.00,WSW,246,3.0,5.0,97,0.00,,,-99.99,,2013-05-10 09:32:00,
2013-05-10 03:42:00,34.0,33.0,-100.00,West,261,4.0,5.0,96,0.00,,,-99.99,,2013-05-10 09:42:00,
2013-05-10 03:52:00,32.0,31.0,-100.00,NW,322,1.0,4.0,95,0.00,,,-99.99,,2013-05-10 09:52:00,
2013-05-10 04:03:00,31.0,30.0,-100.00,NNE,31,1.0,4.0,97,0.00,,,-99.99,,2013-05-10 10:03:00,
2013-05-10 04:12:00,31.0,31.0,-100.00,NE,37,2.0,4.0,97,0.00,,,-99.99,,2013-05-10 10:12:00,
2013-05-10 04:23:00,32.0,31.0,-100.00,NE,47,2.0,4.0,98,0.00,,,-99.99,,2013-05-10 10:23:00,
2013-05-10 04:32:00,33.0,33.0,-100.00,NE,41,1.0,3.0,98,0.00,,,-99.99,,2013-05-10 10:32:00,
2013-05-10 04:42:00,33.0,33.0,-100.00,NNE,23,1.0,2.0,97,0.00,,,-99.99,,2013-05-10 10:42:00,
2013-05-10 04:52:00,32.0,31.0,-100.00,North,6,1.0,2.0,97,0.00,,,-99.99,,2013-05-10 10:52:00,
2013-05-10 05:02:00,31.0,30.0,-100.00,NW,319,1.0,4.0,96,0.00,,,-99.99,,2013-05-10 11:02:00,
2013-05-10 05:12:00,30.0,29.0,-100.00,WNW,291,2.0,4.0,99,0.00,,,-99.99,,2013-05-10 11:12:00,
2013-05-10 05:21:00,30.0,30.0,-100.00,NW,305,1.0,6.0,98,0.00,,,-99.99,,2013-05-10 11:21:00,
2013-05-10 05:32:00,31.0,30.0,-100.00,NW,305,1.0,2.0,99,0.00,,,-99.99,,2013-05-10 11:32:00,
2013-05-10 05:42:00,31.0,30.0,-100.00,NW,325,1.0,4.0,98,0.00,,,-99.99,,2013-05-10 11:42:00,
2013-05-10 05:51:00,30.0,30.0,-100.00,NNE,24,1.0,4.0,99,0.00,,,-99.99,,2013-05-10 11:51:00,
2013-05-10 06:01:00,29.0,29.0,-100.00,SSW,213,2.0,4.0,99,0.00,,,-99.99,,2013-05-10 12:01:00,
2013-05-10 06:11:00,29.0,28.0,-100.00,SW,222,3.0,5.0,99,0.00,,,-99.99,,2013-05-10 12:11:00,
2013-05-10 06:21:00,29.0,28.0,-100.00,SW,227,3.0,4.0,99,0.00,,,-99.99,,2013-05-10 12:21:00,
2013-05-10 06:32:00,29.0,28.0,-100.00,SW,233,2.0,4.0,99,0.00,,,-99.99,,2013-05-10 12:32:00,
2013-05-10 06:42:00,29.0,29.0,-100.00,West,261,2.0,4.0,99,0.00,,,-99.99,,2013-05-10 12:42:00,
2013-05-10 06:51:00,29.0,29.0,-100.00,West,263,2.0,4.0,99,0.00,,,-99.99,,2013-05-10 12:51:00,
2013-05-10 07:01:00,29.0,29.0,-100.00,West,264,2.0,3.0,99,0.00,,,-99.99,,2013-05-10 13:01:00,
2013-05-10 07:11:00,29.0,29.0,-100.00,WSW,250,1.0,2.0,99,0.00,,,-99.99,,2013-05-10 13:11:00,
2013-05-10 07:21:00,30.0,29.0,-100.00,SW,230,2.0,3.0,99,0.00,,,-99.99,,2013-05-10 13:21:00,
2013-05-10 07:32:00,31.0,31.0,-100.00,WSW,240,2.0,4.0,99,0.00,,,-99.99,,2013-05-10 13:32:00,
2013-05-10 07:41:00,31.0,31.0,-100.00,WSW,243,2.0,4.0,99,0.00,,,-99.99,,2013-05-10 13:41:00,
2013-05-10 07:52:00,34.0,34.0,-100.00,West,264,3.0,4.0,100,0.00,,,-99.99,,2013-05-10 13:52:00,
2013-05-10 08:02:00,36.0,35.0,-100.00,West,271,4.0,6.0,99,0.00,,,-99.99,,2013-05-10 14:02:00,
2013-05-10 08:11:00,37.0,36.0,-100.00,West,281,4.0,6.0,99,0.00,,,-99.99,,2013-05-10 14:11:00,
2013-05-10 08:21:00,38.0,37.0,-100.00,WNW,294,4.0,6.0,98,0.00,,,-99.99,,2013-05-10 14:21:00,
2013-05-10 08:32:00,38.0,38.0,-100.00,NW,305,4.0,7.0,98,0.00,,,-99.99,,2013-05-10 14:32:00,
2013-05-10 08:41:00,39.0,38.0,-100.00,NW,316,3.0,6.0,98,0.00,,,-99.99,,2013-05-10 14:41:00,
2013-05-10 08:51:00,39.0,38.0,-100.00,NNW,344,3.0,6.0,98,0.00,,,-99.99,,2013-05-10 14:51:00,
2013-05-10 09:02:00,39.0,39.0,-100.00,North,356,3.0,6.0,98,0.00,,,-99.99,,2013-05-10 15:02:00,
2013-05-10 09:20:00,-999.0,-99.9,-100.00,NNW,347,2.0,6.0,98,0.00,,,-99.99,,2013-05-10 15:20:00,
2013-05-10 09:32:00,42.0,41.0,-100.00,NNW,346,3.0,6.0,97,0.00,,,-99.99,,2013-05-10 15:32:00,
2013-05-10 09:42:00,43.0,42.0,-100.00,North,353,3.0,6.0,96,0.00,,,-99.99,,2013-05-10 15:42:00,
2013-05-10 09:52:00,44.0,42.0,-100.00,NNW,335,4.0,7.0,95,0.00,,,-99.99,,2013-05-10 15:52:00,
2013-05-10 10:02:00,45.0,42.0,-100.00,North,350,5.0,10.0,91,0.00,,,-99.99,,2013-05-10 16:02:00,
2013-05-10 10:12:00,47.0,40.0,-100.00,NNW,333,6.0,10.0,77,0.00,,,-99.99,,2013-05-10 16:12:00,
2013-05-10 10:23:00,47.0,40.0,-100.00,North,10,4.0,7.0,75,0.00,,,-99.99,,2013-05-10 16:23:00,
2013-05-10 10:32:00,49.0,40.0,-100.00,North,352,11.0,19.0,69,0.00,,,-99.99,,2013-05-10 16:32:00,
2013-05-10 10:42:00,50.0,36.0,-100.00,NNW,333,14.0,19.0,57,0.00,,,-99.99,,2013-05-10 16:42:00,
2013-05-10 10:52:00,51.0,36.0,-100.00,NNW,342,14.0,25.0,55,0.00,,,-99.99,,2013-05-10 16:52:00,
2013-05-10 11:02:00,51.0,32.0,-100.00,NNW,332,15.0,22.0,48,0.00,,,-99.99,,2013-05-10 17:02:00,
2013-05-10 11:12:00,51.0,31.0,-100.00,NNW,346,16.0,23.0,46,0.00,,,-99.99,,2013-05-10 17:12:00,
2013-05-10 11:21:00,51.0,24.0,-100.00,NNW,335,14.0,19.0,35,0.00,,,-99.99,,2013-05-10 17:21:00,
2013-05-10 11:32:00,53.0,29.0,-100.00,NNW,346,15.0,21.0,40,0.00,,,-99.99,,2013-05-10 17:32:00,
2013-05-10 11:42:00,52.0,25.0,-100.00,NNW,347,15.0,19.0,34,0.00,,,-99.99,,2013-05-10 17:42:00,
2013-05-10 11:52:00,53.0,24.0,-100.00,North,349,17.0,24.0,33,0.00,,,-99.99,,2013-05-10 17:52:00,
2013-05-10 12:10:00,-999.0,-99.9,-100.00,NNW,343,14.0,21.0,31,0.00,,,-99.99,,2013-05-10 18:10:00,
2013-05-10 12:21:00,53.0,24.0,-100.00,NNW,344,14.0,25.0,32,0.00,,,-99.99,,2013-05-10 18:21:00,
2013-05-10 12:34:00,54.0,28.0,-100.00,North,360,17.0,24.0,36,0.00,,,-99.99,,2013-05-10 18:34:00,
2013-05-10 12:43:00,54.0,26.0,-100.00,North,359,14.0,27.0,34,0.00,,,-99.99,,2013-05-10 18:43:00,
2013-05-10 12:54:00,54.0,28.0,-100.00,North,357,14.0,24.0,36,0.00,,,-99.99,,2013-05-10 18:54:00,
2013-05-10 13:02:00,55.0,27.0,-100.00,NNW,343,10.0,16.0,34,0.00,,,-99.99,,2013-05-10 19:02:00,
2013-05-10 13:11:00,56.0,27.0,-100.00,NNW,344,10.0,19.0,32,0.00,,,-99.99,,2013-05-10 19:11:00,
2013-05-10 13:21:00,55.0,28.0,-100.00,North,354,12.0,19.0,35,0.00,,,-99.99,,2013-05-10 19:21:00,
2013-05-10 13:32:00,51.0,31.0,-100.00,NE,34,24.0,33.0,47,0.00,,,-99.99,,2013-05-10 19:32:00,
2013-05-10 13:42:00,52.0,31.0,-100.00,NNE,32,17.0,24.0,46,0.00,,,-99.99,,2013-05-10 19:42:00,
2013-05-10 13:52:00,52.0,30.0,-100.00,North,8,10.0,17.0,42,0.00,,,-99.99,,2013-05-10 19:52:00,
2013-05-10 14:01:00,54.0,28.0,-100.00,NE,40,4.0,9.0,36,0.00,,,-99.99,,2013-05-10 20:01:00,
2013-05-10 14:12:00,56.0,27.0,-100.00,NNW,335,4.0,11.0,33,0.00,,,-99.99,,2013-05-10 20:12:00,
2013-05-10 14:21:00,56.0,29.0,-100.00,NNW,342,7.0,17.0,35,0.00,,,-99.99,,2013-05-10 20:21:00,
2013-05-10 14:32:00,57.0,24.0,-100.00,North,7,14.0,21.0,28,0.00,,,-99.99,,2013-05-10 20:32:00,
2013-05-10 14:41:00,57.0,23.0,-100.00,North,6,14.0,24.0,27,0.00,,,-99.99,,2013-05-10 20:41:00,
2013-05-10 14:52:00,58.0,24.0,-100.00,North,6,17.0,28.0,27,0.00,,,-99.99,,2013-05-10 20:52:00,
2013-05-10 15:02:00,58.0,23.0,-100.00,NNW,344,14.0,26.0,25,0.00,,,-99.99,,2013-05-10 21:02:00,
2013-05-10 15:11:00,58.0,21.0,-100.00,North,353,17.0,23.0,23,0.00,,,-99.99,,2013-05-10 21:11:00,
2013-05-10 15:24:00,58.0,22.0,-100.00,North,3,16.0,29.0,24,0.00,,,-99.99,,2013-05-10 21:24:00,
2013-05-10 15:32:00,57.0,23.0,-100.00,North,352,15.0,25.0,26,0.00,,,-99.99,,2013-05-10 21:32:00,
2013-05-10 15:43:00,57.0,23.0,-100.00,North,359,15.0,23.0,26,0.00,,,-99.99,,2013-05-10 21:43:00,
2013-05-10 15:52:00,58.0,24.0,-100.00,North,3,17.0,23.0,26,0.00,,,-99.99,,2013-05-10 21:52:00,
2013-05-10 16:02:00,58.0,27.0,-100.00,North,350,14.0,24.0,30,0.00,,,-99.99,,2013-05-10 22:02:00,
2013-05-10 16:12:00,58.0,27.0,-100.00,North,354,20.0,26.0,30,0.00,,,-99.99,,2013-05-10 22:12:00,
2013-05-10 16:22:00,56.0,28.0,-100.00,NNE,23,21.0,30.0,33,0.00,,,-99.99,,2013-05-10 22:22:00,
2013-05-10 16:32:00,56.0,27.0,-100.00,North,6,17.0,26.0,32,0.00,,,-99.99,,2013-05-10 22:32:00,
2013-05-10 16:42:00,56.0,25.0,-100.00,NNE,13,19.0,30.0,30,0.00,,,-99.99,,2013-05-10 22:42:00,
2013-05-10 16:52:00,58.0,26.0,-100.00,NNW,346,14.0,24.0,29,0.00,,,-99.99,,2013-05-10 22:52:00,
2013-05-10 17:02:00,57.0,26.0,-100.00,North,360,14.0,21.0,30,0.00,,,-99.99,,2013-05-10 23:02:00,
2013-05-10 17:12:00,56.0,27.0,-100.00,NNW,347,14.0,18.0,33,0.00,,,-99.99,,2013-05-10 23:12:00,
2013-05-10 17:22:00,56.0,28.0,-100.00,NNE,14,17.0,24.0,34,0.00,,,-99.99,,2013-05-10 23:22:00,
2013-05-10 17:32:00,57.0,27.0,-100.00,North,6,12.0,18.0,31,0.00,,,-99.99,,2013-05-10 23:32:00,
2013-05-10 17:41:00,57.0,27.0,-100.00,NNE,13,11.0,18.0,32,0.00,,,-99.99,,2013-05-10 23:41:00,
2013-05-10 17:52:00,57.0,28.0,-100.00,NNE,25,12.0,17.0,33,0.00,,,-99.99,,2013-05-10 23:52:00,
2013-05-10 18:02:00,58.0,26.0,-100.00,NNE,28,12.0,19.0,29,0.00,,,-99.99,,2013-05-11 00:02:00,
2013-05-10 18:11:00,56.0,25.0,-100.00,North,360,14.0,20.0,29,0.00,,,-99.99,,2013-05-11 00:11:00,
2013-05-10 18:21:00,56.0,25.0,-100.00,North,360,14.0,19.0,29,0.00,,,-99.99,,2013-05-11 00:21:00,
2013-05-10 18:32:00,57.0,24.0,-100.00,North,357,11.0,16.0,27,0.00,,,-99.99,,2013-05-11 00:32:00,
2013-05-10 18:42:00,57.0,25.0,-100.00,North,6,14.0,22.0,29,0.00,,,-99.99,,2013-05-11 00:42:00,
2013-05-10 18:51:00,56.0,23.0,-100.00,North,10,17.0,30.0,28,0.00,,,-99.99,,2013-05-11 00:51:00,
2013-05-10 19:01:00,54.0,25.0,-100.00,North,7,9.0,12.0,31,0.00,,,-99.99,,2013-05-11 01:01:00,
2013-05-10 19:11:00,55.0,25.0,-100.00,NNE,13,6.0,8.0,30,0.00,,,-99.99,,2013-05-11 01:11:00,
2013-05-10 19:21:00,54.0,29.0,-100.00,NNE,17,9.0,16.0,37,0.00,,,-99.99,,2013-05-11 01:21:00,
2013-05-10 19:32:00,55.0,29.0,-100.00,NNE,17,10.0,14.0,37,0.00,,,-99.99,,2013-05-11 01:32:00,
2013-05-10 19:42:00,53.0,30.0,-100.00,NNE,16,12.0,17.0,40,0.00,,,-99.99,,2013-05-11 01:42:00,
2013-05-10 19:52:00,52.0,31.0,-100.00,NE,35,14.0,20.0,46,0.00,,,-99.99,,2013-05-11 01:52:00,
2013-05-10 20:02:00,50.0,32.0,-100.00,NE,47,12.0,14.0,50,0.00,,,-99.99,,2013-05-11 02:02:00,
2013-05-10 20:11:00,49.0,32.0,-100.00,NE,51,10.0,12.0,52,0.00,,,-99.99,,2013-05-11 02:11:00,
2013-05-10 20:21:00,47.0,33.0,-100.00,NE,45,5.0,8.0,58,0.00,,,-99.99,,2013-05-11 02:21:00,
2013-05-10 20:32:00,47.0,33.0,-100.00,NE,40,5.0,6.0,58,0.00,,,-99.99,,2013-05-11 02:32:00,
2013-05-10 20:42:00,47.0,32.0,-100.00,NE,34,6.0,7.0,56,0.00,,,-99.99,,2013-05-11 02:42:00,
2013-05-10 20:51:00,48.0,31.0,-100.00,NE,38,4.0,6.0,53,0.00,,,-99.99,,2013-05-11 02:51:00,
2013-05-10 21:01:00,49.0,31.0,-100.00,NE,45,3.0,5.0,50,0.00,,,-99.99,,2013-05-11 03:01:00,
2013-05-10 21:11:00,47.0,32.0,-100.00,NE,35,3.0,4.0,56,0.00,,,-99.99,,2013-05-11 03:11:00,
2013-05-10 21:21:00,45.0,32.0,-100.00,North,7,3.0,4.0,60,0.00,,,-99.99,,2013-05-11 03:21:00,
2013-05-10 21:33:00,47.0,33.0,-100.00,NNE,14,4.0,6.0,57,0.00,,,-99.99,,2013-05-11 03:33:00,
2013-05-10 21:42:00,47.0,32.0,-100.00,North,10,2.0,4.0,56,0.00,,,-99.99,,2013-05-11 03:42:00,
2013-05-10 21:53:00,47.0,32.0,-100.00,North,11,2.0,4.0,56,0.00,,,-99.99,,2013-05-11 03:53:00,
2013-05-10 22:02:00,43.0,32.0,-100.00,NE,34,12.0,18.0,64,0.00,,,-99.99,,2013-05-11 04:02:00,
2013-05-10 22:12:00,43.0,33.0,-100.00,NE,41,15.0,17.0,68,0.00,,,-99.99,,2013-05-11 04:12:00,
2013-05-10 22:23:00,43.0,33.0,-100.00,NE,37,14.0,17.0,69,0.00,,,-99.99,,2013-05-11 04:23:00,
2013-05-10 22:33:00,42.0,33.0,-100.00,NE,34,12.0,14.0,71,0.00,,,-99.99,,2013-05-11 04:33:00,
2013-05-10 22:43:00,42.0,34.0,-100.00,NNE,30,10.0,12.0,72,0.00,,,-99.99,,2013-05-11 04:43:00,
2013-05-10 22:52:00,41.0,33.0,-100.00,NE,34,7.0,9.0,74,0.00,,,-99.99,,2013-05-11 04:52:00,
2013-05-10 23:02:00,40.0,33.0,-100.00,ENE,58,3.0,6.0,74,0.00,,,-99.99,,2013-05-11 05:02:00,
2013-05-10 23:12:00,41.0,33.0,-100.00,ENE,64,2.0,4.0,74,0.00,,,-99.99,,2013-05-11 05:12:00,
2013-05-10 23:21:00,37.0,30.0,-100.00,NW,312,3.0,9.0,76,0.00,,,-99.99,,2013-05-11 05:21:00,
2013-05-10 23:32:00,35.0,31.0,-100.00,SW,230,9.0,11.0,84,0.00,,,-99.99,,2013-05-11 05:32:00,
2013-05-10 23:42:00,37.0,32.0,-100.00,WSW,237,5.0,7.0,82,0.00,,,-99.99,,2013-05-11 05:42:00,
2013-05-10 23:52:00,36.0,31.0,-100.00,WSW,244,4.0,7.0,82,0.00,,,-99.99,,2013-05-11 05:52:00,